User: anonymous   Login
Location: Vale
(35.4830°N, 81.3830°W)
Time: 02:36:50
(UTC-05:00)
Language:

Oscar 11 - Orbit

View from above orbital plane
View from above orbital plane
View from above satellite
View from above satellite

Ground track
Ground track

The orbit data is extracted from the following two-line orbital elements,

1 14781U 84021B   14350.35887054  .00001593  00000-0  20721-3 0  6900
2 14781 097.8287 046.7245 0007335 312.1523 047.9066 14.82001546654948
Epoch (UTC): 16 December 2014 08:36:46
Eccentricity: 0.0007335
inclination: 97.8287°
perigee height: 618 km
apogee height: 628 km
right ascension of ascending node: 46.7245°
argument of perigee: 312.1523°
revolutions per day: 14.82001546
mean anomaly at epoch: 47.9066°
orbit number at epoch: 65494

The dashed part of the orbit path shows where the satellite is in the earth's shadow,  

DLR